Regional Weather Roundup
Issued by NWS

Home | Current Version | Previous Version | Graphics & Text | Print | Product List | Glossary On
Versions: 1 2 3 4 5 6 7 8 9 10 11 12 13 14 15 16 17 18 19 20 21 22 23 24 25 26 27 28
000
ASUS45 KCYS 222310
RWRWY

WYOMING REGIONAL WEATHER ROUNDUP
NATIONAL WEATHER SERVICE CHEYENNE WY
500 PM MDT MON AUG 22 2016

NOTE:  "FAIR" INDICATES FEW OR NO CLOUDS BELOW 12,000 FEET
WITH NO SIGNIFICANT WEATHER AND/OR OBSTRUCTIONS TO VISIBILITY.

WYZ001-230000-
YELLOWSTONE NATIONAL PARK

CITY           SKY/WX    TMP DP  RH WIND       PRES   REMARKS
LK YELLOWSTONE   N/A     71   7   8 SW12G25   30.10S
W YELLOWSTONE  NOT AVBL

$$
WYZ002>013-054>058-071-098>099-230000-
NORTHERN WYOMING

CITY           SKY/WX    TMP DP  RH WIND       PRES   REMARKS
JACKSON        SUNNY     79  21  11 SW25      30.02S
CODY           FAIR      86  28  12 SW10      29.80S
GREYBULL       FAIR      93  19   7 S10       29.70F
WORLAND        FAIR      94  19   6 NW8       29.71F
SHERIDAN       FAIR      93  28  10 NE6       29.72F
BUFFALO        FAIR      91  25   9 NE7       29.81S
GILLETTE       FAIR      91  31  11 N16G22    29.74R
HULETT         FAIR      91  32  12 N5        29.75F
NEWCASTLE      FAIR      91  21   8 W15       29.77R

$$
WYZ014>020-022>026-101>103-230000-
CENTRAL WYOMING

CITY           SKY/WX    TMP DP  RH WIND       PRES   REMARKS
BIG PINEY      FAIR      81  23  11 NW18G26   30.07S
PINEDALE       FAIR      79  21  11 NW20G26   30.07S
DUBOIS         FAIR      77  16  10 NW18G33   30.02R
LANDER         FAIR      89  22   8 W14G23    29.87S
RIVERTON       FAIR      90  14   6 W16G26    29.86F
CASPER         FAIR      89  20   8 W10       29.85F
DOUGLAS        FAIR      93  23   8 W16G26    29.84F

$$
WYZ021-027>030-104>119-230000-
SOUTHERN WYOMING

CITY           SKY/WX    TMP DP  RH WIND       PRES   REMARKS
EVANSTON       FAIR      81  20  10 W24G32    30.11S
FORT BRIDGER   FAIR      84  21   9 W15G25    30.11S
ROCK SPRINGS   FAIR      81  25  12 SW18G30   30.05R
DIXON          LGT RAIN  80  28  15 S17G37    30.08R
RAWLINS        FAIR      83  20   9 W20G29    30.03S
SARATOGA       FAIR      81  23  12 W9G16     30.07R
LARAMIE        PTSUNNY   71  34  25 W14       30.14R
CHEYENNE       FAIR      77  37  23 E10       30.02S
TORRINGTON     FAIR      87  46  24 SE10      29.80S
PINE BLUFFS    FAIR      79  32  18 NW8G23    29.93S

$$




USA.gov is the U.S. government's official web portal to all federal, state and local government web resources and services.